TimeEST,TemperatureF,Dew PointF,Humidity,Sea Level PressureIn,VisibilityMPH,Wind Direction,Wind SpeedMPH,Gust SpeedMPH,PrecipitationIn,Events,Conditions,WindDirDegrees,DateUTC
12:15 AM,23.5,22.8,97,30.30,10.0,Calm,Calm,-,N/A,,Clear,0,2013-12-11 05:15:00
12:35 AM,22.5,21.7,97,30.31,10.0,Calm,Calm,-,N/A,,Clear,0,2013-12-11 05:35:00
12:55 AM,21.9,21.0,96,30.31,10.0,Calm,Calm,-,N/A,,Clear,0,2013-12-11 05:55:00
1:15 AM,22.1,21.2,96,30.31,10.0,Calm,Calm,-,N/A,,Clear,0,2013-12-11 06:15:00
1:35 AM,21.7,20.8,96,30.32,10.0,Calm,Calm,-,N/A,,Clear,0,2013-12-11 06:35:00
1:55 AM,21.9,20.7,95,30.33,10.0,Calm,Calm,-,N/A,,Clear,0,2013-12-11 06:55:00
2:15 AM,20.8,19.4,94,30.33,10.0,Calm,Calm,-,N/A,,Clear,0,2013-12-11 07:15:00
2:35 AM,20.7,19.4,95,30.33,10.0,Calm,Calm,-,N/A,,Clear,0,2013-12-11 07:35:00
2:55 AM,21.2,19.9,95,30.35,10.0,Calm,Calm,-,N/A,,Clear,0,2013-12-11 07:55:00
3:15 AM,21.2,19.8,94,30.36,10.0,Calm,Calm,-,N/A,,Clear,0,2013-12-11 08:15:00
3:35 AM,20.3,19.2,96,30.37,10.0,Calm,Calm,-,N/A,,Clear,0,2013-12-11 08:35:00
3:55 AM,19.8,18.5,95,30.37,10.0,Calm,Calm,-,N/A,,Clear,0,2013-12-11 08:55:00
4:15 AM,20.1,18.9,95,30.37,10.0,Calm,Calm,-,N/A,,Clear,0,2013-12-11 09:15:00
4:35 AM,19.4,18.3,96,30.37,10.0,Calm,Calm,-,N/A,,Clear,0,2013-12-11 09:35:00
4:55 AM,19.6,18.3,95,30.38,10.0,Calm,Calm,-,N/A,,Clear,0,2013-12-11 09:55:00
5:15 AM,19.2,17.8,94,30.39,10.0,Calm,Calm,-,N/A,,Clear,0,2013-12-11 10:15:00
5:35 AM,19.0,17.6,94,30.40,10.0,Calm,Calm,-,N/A,,Clear,0,2013-12-11 10:35:00
5:55 AM,18.9,17.6,95,30.40,10.0,Calm,Calm,-,N/A,,Clear,0,2013-12-11 10:55:00
6:15 AM,18.5,16.7,93,30.40,10.0,Calm,Calm,-,N/A,,Clear,0,2013-12-11 11:15:00
6:35 AM,18.1,16.7,94,30.40,10.0,Calm,Calm,-,N/A,,Clear,0,2013-12-11 11:35:00
6:55 AM,18.0,16.7,95,30.41,10.0,Calm,Calm,-,N/A,,Clear,0,2013-12-11 11:55:00
7:15 AM,18.1,16.7,94,30.41,10.0,Calm,Calm,-,N/A,,Clear,0,2013-12-11 12:15:00
7:35 AM,17.4,15.8,93,30.41,10.0,Calm,Calm,-,N/A,,Clear,0,2013-12-11 12:35:00
7:55 AM,19.0,17.8,95,30.41,10.0,Calm,Calm,-,N/A,,Clear,0,2013-12-11 12:55:00
8:15 AM,21.4,20.1,95,30.42,10.0,Calm,Calm,-,N/A,,Clear,0,2013-12-11 13:15:00
8:35 AM,24.1,23.0,96,30.42,10.0,Calm,Calm,-,N/A,,Clear,0,2013-12-11 13:35:00
8:55 AM,25.9,24.1,93,30.43,10.0,Calm,Calm,-,N/A,,Clear,0,2013-12-11 13:55:00
9:15 AM,28.8,26.8,92,30.44,10.0,Calm,Calm,-,N/A,,Clear,0,2013-12-11 14:15:00
9:35 AM,31.8,29.1,90,30.45,10.0,Calm,Calm,-,N/A,,Clear,0,2013-12-11 14:35:00
9:55 AM,34.2,27.0,75,30.45,10.0,Calm,Calm,-,N/A,,Clear,0,2013-12-11 14:55:00
10:15 AM,34.9,27.1,73,30.44,10.0,Calm,Calm,-,N/A,,Clear,0,2013-12-11 15:15:00
10:35 AM,36.3,26.4,67,30.43,10.0,SE,3.5,-,N/A,,Clear,130,2013-12-11 15:35:00
10:55 AM,38.1,24.8,59,30.43,10.0,Calm,Calm,-,N/A,,Clear,0,2013-12-11 15:55:00
11:15 AM,41.0,23.7,50,30.42,10.0,SSE,3.5,-,N/A,,Clear,150,2013-12-11 16:15:00
11:35 AM,43.5,19.9,39,30.40,10.0,Calm,Calm,-,N/A,,Clear,0,2013-12-11 16:35:00
11:55 AM,44.2,18.0,35,30.39,10.0,Calm,Calm,-,N/A,,Clear,0,2013-12-11 16:55:00
12:15 PM,46.0,18.9,34,30.38,10.0,SW,4.6,-,N/A,,Clear,220,2013-12-11 17:15:00
12:35 PM,45.9,18.7,34,30.37,10.0,SSW,4.6,-,N/A,,Clear,210,2013-12-11 17:35:00
12:55 PM,46.8,19.0,33,30.35,10.0,South,4.6,-,N/A,,Clear,190,2013-12-11 17:55:00
1:15 PM,47.1,18.9,33,30.33,10.0,WSW,4.6,-,N/A,,Clear,250,2013-12-11 18:15:00
1:35 PM,48.4,18.9,31,30.32,10.0,SW,5.8,-,N/A,,Clear,220,2013-12-11 18:35:00
1:55 PM,49.1,18.0,29,30.32,10.0,SW,4.6,-,N/A,,Clear,230,2013-12-11 18:55:00
2:15 PM,50.5,19.9,30,30.30,10.0,SSW,4.6,-,N/A,,Clear,210,2013-12-11 19:15:00
2:35 PM,50.0,18.1,28,30.30,10.0,SSW,4.6,-,N/A,,Clear,210,2013-12-11 19:35:00
2:55 PM,49.6,16.9,27,30.29,10.0,WSW,5.8,-,N/A,,Clear,240,2013-12-11 19:55:00
3:15 PM,49.6,17.6,28,30.28,10.0,SSW,6.9,-,N/A,,Clear,210,2013-12-11 20:15:00
3:35 PM,49.3,19.4,31,30.29,10.0,SW,4.6,-,N/A,,Clear,230,2013-12-11 20:35:00
3:55 PM,48.4,19.8,32,30.29,10.0,SSW,6.9,-,N/A,,Clear,210,2013-12-11 20:55:00
4:15 PM,46.4,20.5,36,30.28,10.0,SSW,5.8,-,N/A,,Clear,200,2013-12-11 21:15:00
4:35 PM,44.8,21.2,39,30.29,10.0,SW,3.5,-,N/A,,Clear,220,2013-12-11 21:35:00
4:55 PM,43.2,21.0,41,30.29,10.0,SW,4.6,-,N/A,,Clear,220,2013-12-11 21:55:00
5:15 PM,41.5,21.9,46,30.29,10.0,Calm,Calm,-,N/A,,Clear,0,2013-12-11 22:15:00
5:35 PM,40.3,21.9,48,30.29,10.0,SW,3.5,-,N/A,,Clear,220,2013-12-11 22:35:00
5:55 PM,40.1,21.9,48,30.29,10.0,Calm,Calm,-,N/A,,Clear,0,2013-12-11 22:55:00
6:15 PM,40.1,22.1,49,30.30,10.0,SW,4.6,-,N/A,,Clear,220,2013-12-11 23:15:00
6:35 PM,39.7,22.3,50,30.30,10.0,SW,4.6,-,N/A,,Clear,220,2013-12-11 23:35:00
6:55 PM,38.1,23.2,55,30.30,10.0,SW,3.5,-,N/A,,Clear,230,2013-12-11 23:55:00
7:15 PM,32.9,25.3,74,30.30,10.0,SW,3.5,-,N/A,,Clear,230,2013-12-12 00:15:00
7:35 PM,30.7,25.2,80,30.31,10.0,SW,3.5,-,N/A,,Clear,230,2013-12-12 00:35:00
7:55 PM,30.4,25.2,81,30.30,10.0,Calm,Calm,-,N/A,,Clear,0,2013-12-12 00:55:00
8:15 PM,30.9,25.3,80,30.30,10.0,Calm,Calm,-,N/A,,Clear,0,2013-12-12 01:15:00
8:35 PM,29.1,24.6,83,30.31,10.0,Calm,Calm,-,N/A,,Clear,0,2013-12-12 01:35:00
8:55 PM,29.1,24.6,83,30.30,10.0,Calm,Calm,-,N/A,,Clear,0,2013-12-12 01:55:00
9:15 PM,28.0,24.6,87,30.31,10.0,Calm,Calm,-,N/A,,Clear,0,2013-12-12 02:15:00
9:35 PM,27.3,24.8,90,30.31,10.0,Calm,Calm,-,N/A,,Clear,0,2013-12-12 02:35:00
9:55 PM,27.5,24.4,88,30.31,10.0,Calm,Calm,-,N/A,,Clear,0,2013-12-12 02:55:00
10:15 PM,26.6,24.6,92,30.31,10.0,Calm,Calm,-,N/A,,Clear,0,2013-12-12 03:15:00
10:35 PM,26.4,24.4,92,30.31,10.0,Calm,Calm,-,N/A,,Clear,0,2013-12-12 03:35:00
10:55 PM,25.9,23.7,92,30.31,10.0,Calm,Calm,-,N/A,,Clear,0,2013-12-12 03:55:00
11:15 PM,25.7,23.5,92,30.30,10.0,Calm,Calm,-,N/A,,Clear,0,2013-12-12 04:15:00
11:35 PM,26.2,24.6,94,30.30,10.0,West,3.5,-,N/A,,Clear,260,2013-12-12 04:35:00
11:55 PM,30.2,23.9,77,30.30,10.0,West,3.5,-,N/A,,Clear,270,2013-12-12 04:55:00